Location: Moscow
(55.7500°N, 37.5830°E)
Time: 07:36:48
(UTC+03:00)

A-11 Canister half - Pass Details

Date: 05 December 2021
Orbit: 1524 x 1684 km, 47.3° (Epoch: 17 January)

Event Time Altitude Azimuth Distance (km) Brightness Sun altitude
Exits shadow 04:03:18 52° 168° (SSE) 1,993 9.4 -37.4°
Drops below altitude 10° 04:12:31 10° 101° (E) 3,869 11.7 -36.1°
Sets 04:15:41 0° 96° (E) 4,834 12.5 -35.7°
